Orbital Elements at Epoch 2459000.5 (2020-May-31.0) TDB
Reference: JPL 13 (heliocentric ecliptic J2000)
Element | Value | Uncertainty (1-sigma) | Units |
e | .1748569581470125 | 7.7057e-08 | |
a | 2.388110342506776 | 2.1046e-08 | au |
q | 1.970532632296621 | 1.7622e-07 | au |
i | 4.188899897812986 | 9.2592e-06 | deg |
node | 324.9340629037435 | 7.2451e-05 | deg |
peri | 226.6453328490517 | 7.5664e-05 | deg |
M | 212.1774877780736 | 1.853e-05 | deg |
tp | 2459554.000591199446 (2021-Dec-05.50059120) | 6.9429e-05 | TDB |
period | 1347.96933049447 3.69 | 1.7819e-05 4.879e-08 | d yr |
n | .2670683908423515 | 3.5304e-09 | deg/d |
Q | 2.805688052716931 | 2.4726e-08 | au |
|
| | Orbit Determination Parameters
Additional Information
|